Weather History for Jackson, KY

Change the Weather History Date:

Saturday, February 2, 2013

  Actual Average Record
Temperature  
Mean Temperature 23 °F 36 °F  
Max Temperature 31 °F 45 °F 73 °F (1989)
Min Temperature 14 °F 28 °F 6 °F (1996)
Degree Days  
Heating Degree Days 42 29  
Month to date heating degree days 87 58  
Since 1 July heating degree days 2543 2624  
Cooling Degree Days 0 0  
Month to date cooling degree days 0 0  
Year to date cooling degree days 0 0  
Moisture  
Dew Point 23 °F    
Average Humidity 84    
Maximum Humidity 100    
Minimum Humidity 67    
Precipitation  
Precipitation 0.17 in 0.14 in 0.96 in (1988)
Month to date precipitation 0.26 0.27  
Year to date precipitation 5.99 3.88  
Snow  
Snow 2.30 in 0.30 in - ()
Month to date snowfall 3.4 0.6  
Since 1 July snowfall 7.4 13.2  
Snow Depth T in    
Sea Level Pressure  
Sea Level Pressure 30.10 in    
Wind  
Wind Speed 3 mph (SW)    
Max Wind Speed 10 mph    
Max Gust Speed 17 mph    
Visibility 3 miles    
Events Fog , Rain , Snow    
T = Trace of Precipitation, MM = Missing Value Source: NWS Daily Summary

Daily Weather History Graph

Daily Weather History Graph

Search for Another Location

Airport:

Trip Planner

Search our weather history database for the weather conditions in past years. The results will help you decide how hot, cold, wet, or windy it might be!

Date:

Astronomy

Feb. 02, 2013 Rise Set
Actual Time 7:35 AM EST 5:58 PM EST
Civil Twilight 7:08 AM EST 6:26 PM EST
Nautical Twilight 6:37 AM EST 6:57 PM EST
Astronomical Twilight 6:06 AM EST 7:28 PM EST
Moon No Moon Rise 10:54 AM EST (2/2)
Length of Visible Light 11h 17m
Length of Day
10h 22m
Waning Gibbous, 60% of the Moon is Illuminated
Feb 2
Waning Gibbous
Feb 3
Last Quarter
Feb 10
New
Feb 17
First Quarter
Feb 25
Full

Hourly Weather History & Observations

Time (EST) Temp. Windchill Dew Point Humidity Pressure Visibility Wind Dir Wind Speed Gust Speed Precip Events Conditions
12:53 AM 16.0 °F - 7.0 °F 68% 30.36 in 10.0 mi Calm Calm - N/A   Clear
1:53 AM 16.0 °F - 8.1 °F 71% 30.34 in 10.0 mi Calm Calm - N/A   Clear
2:53 AM 14.0 °F 8.2 °F 10.0 °F 84% 30.33 in 10.0 mi SSW 3.5 mph - N/A   Partly Cloudy
3:53 AM 17.6 °F 12.3 °F 8.6 °F 68% 30.26 in 10.0 mi SSW 3.5 mph - N/A   Mostly Cloudy
4:53 AM 16.0 °F 10.4 °F 9.0 °F 74% 30.30 in 10.0 mi SSW 3.5 mph - N/A   Mostly Cloudy
5:53 AM 16.0 °F - 10.0 °F 77% 30.29 in 10.0 mi Calm Calm - N/A   Overcast
6:53 AM 17.1 °F 10.0 °F 10.9 °F 77% 30.29 in 10.0 mi SSW 4.6 mph - N/A   Overcast
7:53 AM 19.0 °F 11.1 °F 12.9 °F 77% 30.28 in 2.5 mi SSW 5.8 mph - 0.00 in Snow Light Snow
8:21 AM 19.4 °F 12.8 °F 14.0 °F 80% 30.22 in 1.8 mi SSW 4.6 mph - 0.00 in Snow Light Snow
8:28 AM 19.4 °F - 15.8 °F 86% 30.22 in 2.5 mi Calm Calm - 0.00 in Snow Light Snow
8:38 AM 19.4 °F - 15.8 °F 86% 30.22 in 3.0 mi Calm Calm - 0.00 in Snow Light Snow
8:53 AM 19.9 °F 12.1 °F 16.0 °F 85% 30.28 in 4.0 mi SSW 5.8 mph - 0.00 in Snow Light Snow
8:58 AM 19.4 °F 14.3 °F 15.8 °F 86% 30.22 in 1.8 mi Variable 3.5 mph - 0.00 in Snow Light Snow
9:05 AM 19.4 °F - 15.8 °F 86% 30.21 in 0.8 mi Calm Calm - 0.00 in Snow Light Snow
9:33 AM 19.4 °F - 17.6 °F 93% 30.21 in 1.0 mi Calm Calm - 0.01 in Snow Light Snow
9:50 AM 19.4 °F 12.8 °F 17.6 °F 93% 30.21 in 0.8 mi SW 4.6 mph - 0.02 in Snow Light Snow
9:53 AM 19.9 °F 14.9 °F 17.1 °F 89% 30.27 in 0.8 mi SSW 3.5 mph - 0.02 in Snow Light Snow
10:18 AM 19.4 °F - 17.6 °F 93% 30.20 in 0.5 mi Calm Calm - 0.01 in Fog , Snow Snow
10:31 AM 21.2 °F - 17.6 °F 86% 30.19 in 0.2 mi Calm Calm - 0.03 in Fog , Snow Snow
10:45 AM 21.2 °F - 17.6 °F 86% 30.18 in 0.5 mi Calm Calm - 0.04 in Fog , Snow Snow
10:53 AM 21.0 °F - 19.0 °F 92% 30.24 in 0.8 mi Calm Calm - 0.05 in Snow Light Snow
10:59 AM 21.2 °F - 19.4 °F 93% 30.17 in 1.0 mi Calm Calm - 0.00 in Snow Light Snow
11:09 AM 21.2 °F 16.4 °F 19.4 °F 93% 30.17 in 0.8 mi Variable 3.5 mph - 0.00 in Snow Light Snow
11:22 AM 21.2 °F 14.9 °F 19.4 °F 93% 30.16 in 1.0 mi South 4.6 mph - 0.01 in Snow Light Snow
11:37 AM 23.0 °F 18.4 °F 21.2 °F 93% 30.14 in 0.8 mi Variable 3.5 mph - 0.01 in Snow Light Snow
11:53 AM 24.1 °F - 21.9 °F 91% 30.19 in 0.8 mi Calm Calm - 0.01 in Snow Light Snow
12:06 PM 24.8 °F 17.9 °F 21.2 °F 86% 30.12 in 0.5 mi South 5.8 mph - 0.01 in Fog , Snow Snow
12:35 PM 24.8 °F 17.9 °F 21.2 °F 86% 30.09 in 1.2 mi Variable 5.8 mph - 0.02 in Snow Light Snow
12:41 PM 24.8 °F 19.1 °F 21.2 °F 86% 30.08 in 2.0 mi Variable 4.6 mph - 0.02 in Snow Light Snow
12:48 PM 24.8 °F 17.9 °F 21.2 °F 86% 30.07 in 3.0 mi Variable 5.8 mph - 0.02 in Snow Light Snow
12:53 PM 26.1 °F 20.5 °F 21.9 °F 84% 30.12 in 4.0 mi Variable 4.6 mph - 0.02 in   Overcast
1:14 PM 26.6 °F 18.2 °F 23.0 °F 86% 30.05 in 4.0 mi SSW 8.1 mph - 0.00 in Snow Light Snow
1:25 PM 26.6 °F 20.0 °F 23.0 °F 86% 30.04 in 2.5 mi Variable 5.8 mph - 0.00 in Snow Light Snow
1:30 PM 26.6 °F 21.2 °F 23.0 °F 86% 30.04 in 1.8 mi SSW 4.6 mph - 0.00 in Snow Light Snow
1:35 PM 26.6 °F 21.2 °F 23.0 °F 86% 30.04 in 2.0 mi Variable 4.6 mph - 0.01 in Snow Light Snow
1:40 PM 26.6 °F 22.6 °F 23.0 °F 86% 30.04 in 2.5 mi Variable 3.5 mph - 0.01 in Snow Light Snow
1:53 PM 27.0 °F - 24.1 °F 89% 30.08 in 3.0 mi Calm Calm - 0.01 in Snow Light Snow
2:21 PM 28.4 °F 22.2 °F 24.8 °F 86% 30.02 in 1.8 mi Variable 5.8 mph - 0.00 in Snow Light Snow
2:34 PM 28.4 °F 23.3 °F 24.8 °F 86% 30.02 in 1.5 mi Variable 4.6 mph - 0.00 in Snow Light Snow
2:42 PM 28.4 °F - 24.8 °F 86% 30.02 in 2.0 mi Calm Calm - 0.00 in Snow Light Snow
2:51 PM 28.4 °F 23.3 °F 24.8 °F 86% 30.02 in 7.0 mi SW 4.6 mph - 0.00 in Snow Light Snow
2:53 PM 28.9 °F 25.2 °F 25.0 °F 85% 30.07 in 8.0 mi SW 3.5 mph - 0.00 in   Overcast
3:53 PM 30.9 °F 26.2 °F 26.1 °F 82% 30.05 in 10.0 mi Variable 4.6 mph - N/A   Overcast
4:37 PM 30.2 °F 25.4 °F 26.6 °F 86% 30.01 in 1.8 mi Variable 4.6 mph - 0.00 in Snow Light Snow
4:45 PM 30.2 °F 25.4 °F 26.6 °F 86% 30.00 in 1.5 mi Variable 4.6 mph - 0.00 in Snow Light Snow
4:53 PM 30.9 °F - 27.0 °F 85% 30.05 in 2.0 mi Calm Calm - 0.00 in Snow Light Snow
4:58 PM 30.2 °F 26.7 °F 26.6 °F 86% 30.00 in 1.5 mi Variable 3.5 mph - 0.00 in Snow Light Snow
5:13 PM 30.2 °F - 26.6 °F 86% 30.00 in 1.8 mi Calm Calm - 0.00 in Snow Light Snow
5:19 PM 30.2 °F - 26.6 °F 86% 30.00 in 3.0 mi Calm Calm - 0.00 in Snow Light Snow
5:42 PM 30.2 °F 26.7 °F 26.6 °F 86% 30.00 in 2.5 mi Variable 3.5 mph - 0.00 in Snow Light Snow
5:50 PM 30.2 °F - 26.6 °F 86% 30.00 in 1.0 mi Calm Calm - 0.01 in Snow Light Snow
5:53 PM 30.0 °F - 27.0 °F 88% 30.05 in 1.0 mi Calm Calm - 0.01 in Snow Light Snow
6:03 PM 30.2 °F - 26.6 °F 86% 30.00 in 1.8 mi Calm Calm - 0.00 in Snow Light Snow
6:28 PM 30.2 °F - 28.4 °F 93% 30.00 in 3.0 mi Calm Calm - N/A Snow Light Snow
6:53 PM 30.0 °F 26.5 °F 28.0 °F 92% 30.05 in 6.0 mi SW 3.5 mph - 0.00 in Snow Light Snow
7:53 PM 30.0 °F - 28.0 °F 92% 30.05 in 3.0 mi Calm Calm - 0.01 in Snow Light Snow
8:06 PM 30.2 °F - 28.4 °F 93% 30.01 in 4.0 mi Calm Calm - 0.00 in   Overcast
8:16 PM 30.2 °F - 28.4 °F 93% 30.01 in 3.0 mi Calm Calm - 0.00 in Snow Light Snow
8:30 PM 30.2 °F 25.4 °F 28.4 °F 93% 30.02 in 2.5 mi SW 4.6 mph - 0.00 in Snow Light Snow
8:37 PM 30.2 °F 26.7 °F 28.4 °F 93% 30.02 in 1.8 mi Variable 3.5 mph - 0.01 in Snow Light Snow
8:44 PM 30.2 °F - 28.4 °F 93% 30.02 in 1.0 mi Calm Calm - 0.02 in Snow Light Snow
8:53 PM 30.0 °F - 28.9 °F 96% 30.06 in 2.0 mi Calm Calm - 0.02 in Snow Light Snow
8:55 PM 30.2 °F - 28.4 °F 93% 30.01 in 1.2 mi Calm Calm - N/A   Overcast
9:08 PM 30.2 °F 25.4 °F 28.4 °F 93% 30.00 in 3.0 mi SW 4.6 mph - N/A   Overcast
9:40 PM 30.2 °F 23.4 °F 30.2 °F 100% 30.01 in 5.0 mi Variable 6.9 mph - 0.00 in Rain Light Freezing Rain
9:53 PM 30.9 °F 25.2 °F 30.0 °F 96% 30.05 in 5.0 mi SW 5.8 mph - 0.00 in Rain Light Freezing Rain
10:08 PM 30.2 °F 26.7 °F 28.4 °F 93% 30.01 in 4.0 mi Variable 3.5 mph - 0.00 in Snow Light Snow
10:16 PM 30.2 °F 24.3 °F 30.2 °F 100% 30.02 in 2.5 mi Variable 5.8 mph - 0.00 in Snow Light Snow
10:20 PM 30.2 °F 23.4 °F 28.4 °F 93% 30.02 in 1.5 mi West 6.9 mph - 0.01 in Snow Light Snow
10:31 PM 30.2 °F 24.3 °F 28.4 °F 93% 30.02 in 2.0 mi West 5.8 mph - 0.01 in Snow Light Snow
10:49 PM 30.2 °F 23.4 °F 28.4 °F 93% 30.02 in 5.0 mi WNW 6.9 mph - 0.02 in   Overcast
10:53 PM 30.0 °F 20.5 °F 28.0 °F 92% 30.06 in 7.0 mi West 11.5 mph - 0.02 in   Overcast
11:00 PM 30.2 °F 24.3 °F 28.4 °F 93% 30.02 in 10.0 mi Variable 5.8 mph - 0.00 in   Overcast
11:16 PM 30.2 °F 23.4 °F 26.6 °F 86% 30.02 in 7.0 mi Variable 6.9 mph - 0.00 in Snow Light Snow
11:30 PM 28.4 °F 21.2 °F 26.6 °F 93% 30.02 in 5.0 mi WNW 6.9 mph 16.1 mph 0.00 in Snow Light Snow
11:53 PM 28.9 °F 25.2 °F 26.1 °F 89% 30.06 in 1.8 mi Variable 3.5 mph - 0.00 in Snow Light Snow
11:57 PM 28.4 °F 23.3 °F 26.6 °F 93% 30.02 in 1.5 mi WNW 4.6 mph - 0.00 in Snow Light Snow